Flag for Israel Weather past 2 weeks in Bat Yam, Israel

Now
82 °F

Scattered clouds.


Feels Like: 83 °F
Forecast: 75 / 84 °F
Wind: 10 mph from Northwest

Location: Dov Airport

Current Time: Oct 2, 2014 at 4:22:58 PM

Latest Report: Oct 2, 2014 at 3:50 PM


Visibility: N/A

Pressure: 29.92 "Hg

Humidity: 51%

Dew point: 63 °F

Location of Bat YamLocation

Historic Weather in Bat Yam — Graph

°F

Bat Yam temperature yesterday

Maximum temperature yesterday: 84 °F (at 12:50 PM)
Minimum temperature yesterday: 70 °F (at 6:50 AM)
Average temperature yesterday: 80 °F

Past Weeks' High & Low Weather Summary

 TemperatureHumidityPressure
High91 °F (Sep 17, 3:50 PM)78% (Sep 24, 4:50 AM)29.98 "Hg (Sep 24, 4:50 AM)
Low70 °F (Sep 30, 5:50 AM)43% (Sep 27, 9:50 PM)29.68 "Hg (Sep 17, 3:50 PM)
Average82 °F61%29.90 "Hg
* Reported Sep 17 2:50 PM — Oct 2 2:50 PM, Bat Yam, Weather by CustomWeather, © 2014

Note: Actual official high and low records may vary slightly from our data, if they occured in-between our weather recording intervals... More about our weather records

Advertising

Bat Yam weather history for previous 24 hours

 ConditionsComfort  
Time TempWeatherWind HumidityBarometerVisibility
2:50 PM
Oct 2
82 °FScattered clouds.13 mph51%29.92 "HgN/A
1:50 PM84 °FScattered clouds.12 mph51%29.92 "HgN/A
12:50 PM82 °FScattered clouds.12 mph55%29.95 "HgN/A
11:50 AM82 °FScattered clouds.12 mph55%29.95 "HgN/A
10:50 AM81 °FScattered clouds.12 mph58%29.95 "HgN/A
9:50 AM81 °FScattered clouds.10 mph54%29.95 "HgN/A
8:50 AM79 °FScattered clouds.14 mph61%29.92 "HgN/A
7:50 AM79 °FScattered clouds.10 mph61%29.92 "HgN/A
6:50 AM77 °FScattered clouds.9 mph65%29.92 "HgN/A
5:50 AM77 °FPassing clouds.9 mph65%29.89 "HgN/A
5:00 AM79 °FPassing clouds.13 mph61%29.89 "HgN/A
10:50 PM
Oct 1
79 °FPassing clouds.15 mph61%29.89 "HgN/A
9:50 PM79 °FPassing clouds.15 mph61%29.92 "HgN/A
8:50 PM79 °FPassing clouds.13 mph61%29.92 "HgN/A
7:50 PM81 °FPassing clouds.13 mph62%29.92 "HgN/A
6:50 PM81 °FThundershowers. Passing clouds.10 mph58%29.89 "HgN/A
5:50 PM82 °FScattered clouds.12 mph55%29.89 "HgN/A
4:50 PM82 °FScattered clouds.12 mph55%29.89 "HgN/A
Weather by CustomWeather, © 2014

See weather overviewHow to use our weather pages